Change the Weather History Date:

Monday, April 21, 2014

  Actual Average (K1V4) Record (K1V4)
Temperature  
Mean Temperature 56 °F 47 °F  
Max Temperature 73 °F 59 °F 88 °F (1941)
Min Temperature 41 °F 35 °F 8 °F (1908)
Degree Days  
Heating Degree Days 8 18  
Month to date heating degree days 474  
Since 1 July heating degree days 7274  
Cooling Degree Days 0 0  
Month to date cooling degree days 0  
Year to date cooling degree days 0  
Growing Degree Days 6 (Base 50)    
Moisture  
Dew Point 23 °F    
Average Humidity 32    
Maximum Humidity 46    
Minimum Humidity 15    
Precipitation  
Precipitation 0.00 in 0.10 in 0.85 in (1905)
Month to date precipitation 1.97  
Year to date precipitation 9.16  
Sea Level Pressure  
Sea Level Pressure 30.00 in    
Wind  
Wind Speed 6 mph (South)    
Max Wind Speed 13 mph    
Max Gust Speed 23 mph    
Visibility 10 miles    
Events      
T = Trace of Precipitation, MM = Missing Value Source: NWS Daily Summary

Daily Weather History Graph

Daily Weather History Graph

Search for Another Location

Airport or City:

Trip Planner

Search our weather history database for the weather conditions in past years. The results will help you decide how hot, cold, wet, or windy it might be!

Date:

Astronomy

Apr. 21, 2014 Rise Set
Actual Time 5:53 AM EDT 7:40 PM EDT
Civil Twilight 5:23 AM EDT 8:11 PM EDT
Nautical Twilight 4:45 AM EDT 8:49 PM EDT
Astronomical Twilight 4:04 AM EDT 9:30 PM EDT
Moon 1:11 AM EDT (4/21) 11:14 AM EDT (4/21)
Length of Visible Light 14h 48m
Length of Day
13h 46m
Waning Gibbous, 58% of the Moon is Illuminated
Apr 21
Waning Gibbous
Apr 22
Last Quarter
Apr 29
New
May 6
First Quarter
May 14
Full

Hourly Weather History & Observations

Time (EDT) Temp. Windchill Dew Point Humidity Pressure Visibility Wind Dir Wind Speed Gust Speed Precip Events Conditions
12:15 AM 45.7 °F 40.6 °F 14.0 °F 28% 30.23 in 10.0 mi South 10.4 mph - N/A   Scattered Clouds
12:35 AM 45.0 °F 39.7 °F 15.1 °F 30% 30.23 in 10.0 mi South 10.4 mph - N/A   Scattered Clouds
12:55 AM 44.4 °F 40.5 °F 15.6 °F 31% 30.22 in 10.0 mi South 6.9 mph - N/A   Mostly Cloudy
1:15 AM 43.9 °F - 16.3 °F 33% 30.21 in 10.0 mi Calm Calm - N/A   Overcast
1:35 AM 43.5 °F - 16.7 °F 34% 30.21 in 10.0 mi Calm Calm - N/A   Overcast
1:55 AM 43.7 °F 41.1 °F 16.5 °F 34% 30.20 in 10.0 mi SSE 4.6 mph - N/A   Mostly Cloudy
2:15 AM 43.3 °F 40.7 °F 17.1 °F 35% 30.19 in 10.0 mi SE 4.6 mph - N/A   Mostly Cloudy
2:35 AM 41.9 °F 40.0 °F 17.8 °F 38% 30.19 in 10.0 mi SE 3.5 mph - N/A   Scattered Clouds
2:55 AM 42.8 °F 39.3 °F 17.6 °F 36% 30.18 in 10.0 mi SE 5.8 mph - N/A   Clear
3:15 AM 42.1 °F 39.2 °F 18.1 °F 38% 30.18 in 10.0 mi South 4.6 mph - N/A   Clear
3:35 AM 42.1 °F 38.4 °F 18.1 °F 38% 30.16 in 10.0 mi SSE 5.8 mph - N/A   Clear
3:55 AM 42.3 °F 36.8 °F 18.5 °F 39% 30.16 in 10.0 mi SSE 9.2 mph - N/A   Scattered Clouds
4:15 AM 42.1 °F 39.2 °F 19.2 °F 40% 30.15 in 10.0 mi SSE 4.6 mph - N/A   Overcast
4:35 AM 42.3 °F 37.3 °F 19.0 °F 39% 30.15 in 10.0 mi SSE 8.1 mph - N/A   Overcast
4:55 AM 41.9 °F 36.3 °F 19.4 °F 41% 30.13 in 10.0 mi SSE 9.2 mph - N/A   Overcast
5:15 AM 41.9 °F 37.5 °F 19.9 °F 42% 30.14 in 10.0 mi SSE 6.9 mph - N/A   Overcast
5:35 AM 42.1 °F 38.4 °F 19.9 °F 41% 30.14 in 10.0 mi SSE 5.8 mph - N/A   Overcast
5:55 AM 42.1 °F 37.1 °F 20.7 °F 42% 30.13 in 10.0 mi South 8.1 mph - N/A   Overcast
6:15 AM 41.7 °F 38.0 °F 21.2 °F 44% 30.13 in 10.0 mi SSE 5.8 mph - N/A   Overcast
6:35 AM 42.1 °F 38.4 °F 21.2 °F 43% 30.13 in 10.0 mi SSE 5.8 mph - N/A   Overcast
6:55 AM 42.3 °F 37.9 °F 21.7 °F 44% 30.13 in 10.0 mi SSE 6.9 mph - N/A   Overcast
7:15 AM 42.1 °F 38.4 °F 22.1 °F 45% 30.13 in 10.0 mi South 5.8 mph - N/A   Overcast
7:55 AM 43.0 °F 39.5 °F 22.6 °F 45% 30.13 in 10.0 mi SSE 5.8 mph - N/A   Overcast
8:15 AM 43.2 °F 39.0 °F 22.8 °F 45% 30.11 in 10.0 mi SSE 6.9 mph - N/A   Overcast
8:35 AM 44.4 °F 40.5 °F 23.7 °F 44% 30.10 in 10.0 mi SSE 6.9 mph - N/A   Overcast
8:55 AM 45.3 °F 41.6 °F 23.5 °F 42% 30.10 in 10.0 mi South 6.9 mph - N/A   Overcast
9:15 AM 45.5 °F 43.2 °F 23.5 °F 42% 30.10 in 10.0 mi South 4.6 mph - N/A   Overcast
9:35 AM 45.3 °F 43.0 °F 23.7 °F 43% 30.09 in 10.0 mi SSE 4.6 mph - N/A   Overcast
9:55 AM 45.3 °F - 24.6 °F 44% 30.08 in 10.0 mi Calm Calm - N/A   Light Drizzle
10:15 AM 45.7 °F - 26.1 °F 46% 30.08 in 10.0 mi Calm Calm - N/A   Overcast
10:35 AM 46.8 °F - 25.3 °F 43% 30.08 in 10.0 mi Calm Calm - N/A   Overcast
10:55 AM 49.5 °F - 25.3 °F 39% 30.07 in 10.0 mi SW 3.5 mph - N/A   Overcast
11:15 AM 52.9 °F - 25.2 °F 34% 30.05 in 10.0 mi SSE 5.8 mph - N/A   Mostly Cloudy
11:35 AM 53.6 °F - 24.4 °F 32% 30.04 in 10.0 mi ESE 5.8 mph - N/A   Mostly Cloudy
11:55 AM 55.8 °F - 24.3 °F 30% 30.01 in 10.0 mi ESE 3.5 mph - N/A   Overcast
12:15 PM 58.1 °F - 24.1 °F 27% 30.01 in 10.0 mi SSE 5.8 mph - N/A   Overcast
12:35 PM 58.8 °F - 25.3 °F 28% 30.00 in 10.0 mi South 4.6 mph - N/A   Overcast
12:55 PM 61.0 °F - 25.3 °F 26% 29.98 in 10.0 mi South 3.5 mph - N/A   Overcast
1:15 PM 61.3 °F - 25.9 °F 26% 29.97 in 10.0 mi ESE 3.5 mph - N/A   Overcast
1:35 PM 63.0 °F - 27.0 °F 26% 29.96 in 10.0 mi SE 4.6 mph - N/A   Mostly Cloudy
1:55 PM 64.6 °F - 26.1 °F 23% 29.95 in 10.0 mi SE 3.5 mph - N/A   Scattered Clouds
2:15 PM 67.1 °F - 26.4 °F 22% 29.94 in 10.0 mi Calm Calm - N/A   Clear
2:35 PM 68.7 °F - 24.1 °F 19% 29.92 in 10.0 mi West 10.4 mph - N/A   Clear
2:55 PM 70.7 °F - 24.3 °F 18% 29.91 in 10.0 mi SW 5.8 mph - N/A   Clear
3:15 PM 71.8 °F - 23.2 °F 16% 29.89 in 10.0 mi West 8.1 mph - N/A   Scattered Clouds
3:35 PM 72.3 °F - 22.5 °F 15% 29.88 in 10.0 mi WSW 12.7 mph 20.7 mph N/A   Mostly Cloudy
3:55 PM 72.7 °F - 22.1 °F 15% 29.87 in 10.0 mi West 9.2 mph 18.4 mph N/A   Scattered Clouds
4:15 PM 72.5 °F - 21.7 °F 15% 29.86 in 10.0 mi SW 12.7 mph 23.0 mph N/A   Scattered Clouds
4:35 PM 70.3 °F - 21.2 °F 16% 29.86 in 10.0 mi West 12.7 mph 17.3 mph N/A   Mostly Cloudy
4:55 PM 69.6 °F - 21.2 °F 16% 29.85 in 10.0 mi West 11.5 mph 19.6 mph N/A   Mostly Cloudy
5:15 PM 68.5 °F - 20.3 °F 16% 29.85 in 10.0 mi West 11.5 mph 21.9 mph N/A   Mostly Cloudy
5:35 PM 68.9 °F - 21.7 °F 17% 29.85 in 10.0 mi West 9.2 mph - N/A   Overcast
5:55 PM 68.0 °F - 21.7 °F 17% 29.84 in 10.0 mi West 11.5 mph - N/A   Overcast
6:15 PM 66.7 °F - 22.8 °F 19% 29.84 in 10.0 mi West 8.1 mph - N/A   Overcast
6:55 PM 64.9 °F - 24.8 °F 22% 29.84 in 10.0 mi WNW 8.1 mph - N/A   Overcast
7:15 PM 64.6 °F - 25.3 °F 23% 29.84 in 10.0 mi WNW 5.8 mph - N/A   Overcast
7:35 PM 63.5 °F - 26.4 °F 25% 29.85 in 10.0 mi WNW 5.8 mph - N/A   Overcast
7:55 PM 62.4 °F - 26.4 °F 26% 29.84 in 10.0 mi WNW 5.8 mph - N/A   Mostly Cloudy
8:15 PM 61.9 °F - 26.1 °F 26% 29.84 in 10.0 mi West 4.6 mph - N/A   Mostly Cloudy
8:35 PM 61.5 °F - 27.0 °F 27% 29.85 in 10.0 mi West 4.6 mph - N/A   Overcast
8:55 PM 61.2 °F - 27.5 °F 28% 29.84 in 10.0 mi Calm Calm - N/A   Overcast
9:15 PM 59.9 °F - 26.6 °F 28% 29.84 in 10.0 mi Calm Calm - N/A   Overcast
9:35 PM 60.8 °F - 26.2 °F 27% 29.84 in 10.0 mi Calm Calm - N/A   Overcast
9:55 PM 60.8 °F - 26.4 °F 27% 29.83 in 10.0 mi Calm Calm - N/A   Overcast
10:15 PM 58.8 °F - 29.1 °F 32% 29.82 in 10.0 mi Calm Calm - N/A   Overcast
10:35 PM 57.6 °F - 29.3 °F 34% 29.82 in 10.0 mi Calm Calm - N/A   Overcast
10:55 PM 56.7 °F - 30.0 °F 36% 29.81 in 10.0 mi Calm Calm - N/A   Overcast
11:15 PM 58.3 °F - 28.8 °F 33% 29.81 in 10.0 mi Calm Calm - N/A   Overcast
11:35 PM 53.6 °F - 32.4 °F 44% 29.80 in 10.0 mi Calm Calm - N/A   Overcast
11:55 PM 52.9 °F - 32.5 °F 46% 29.80 in 10.0 mi Calm Calm - N/A   Overcast